Time,TemperatureF,DewpointF,PressureIn,WindDirection,WindDirectionDegrees,WindSpeedMPH,WindSpeedGustMPH,Humidity,HourlyPrecipIn,Conditions,Clouds,dailyrainin,SoftwareType,DateUTC
2013-03-06 00:00:00,33.6,37.6,30.06,ESE,109,0.0,1.0,89,0.00,,,0.00,meteohub,2013-03-06 05:00:00,
2013-03-06 00:01:00,33.8,37.6,30.06,ESE,109,1.0,1.0,89,0.00,,,0.00,meteohub,2013-03-06 05:01:00,
2013-03-06 00:06:00,34.3,37.6,30.06,ESE,109,0.0,2.0,89,0.00,,,0.00,meteohub,2013-03-06 05:06:00,
2013-03-06 00:11:00,34.3,37.6,30.06,ESE,109,1.0,2.0,88,0.00,,,0.00,meteohub,2013-03-06 05:11:00,
2013-03-06 00:16:00,34.3,37.4,30.06,ESE,109,0.0,2.0,88,0.00,,,0.00,meteohub,2013-03-06 05:16:00,
2013-03-06 00:21:00,34.5,37.4,30.06,ESE,121,0.0,4.0,88,0.00,,,0.00,meteohub,2013-03-06 05:21:00,
2013-03-06 00:26:00,34.3,37.2,30.06,ESE,111,1.0,4.0,87,0.00,,,0.00,meteohub,2013-03-06 05:26:00,
2013-03-06 00:31:00,34.3,37.2,30.06,ESE,111,0.0,4.0,87,0.00,,,0.00,meteohub,2013-03-06 05:31:00,
2013-03-06 00:36:00,34.3,37.2,30.05,ESE,111,0.0,3.0,88,0.00,,,0.00,meteohub,2013-03-06 05:36:00,
2013-03-06 00:41:00,34.3,37.0,30.05,ESE,111,0.0,2.0,88,0.00,,,0.00,meteohub,2013-03-06 05:41:00,
2013-03-06 00:46:00,34.3,37.0,30.06,ESE,111,0.0,1.0,88,0.00,,,0.00,meteohub,2013-03-06 05:46:00,
2013-03-06 00:51:00,34.2,36.9,30.06,ESE,111,0.0,1.0,88,0.00,,,0.00,meteohub,2013-03-06 05:51:00,
2013-03-06 00:56:00,34.0,37.0,30.06,ESE,111,0.0,0.0,89,0.00,,,0.00,meteohub,2013-03-06 05:56:00,
2013-03-06 01:01:00,33.8,37.0,30.06,ESE,111,0.0,0.0,89,0.00,,,0.00,meteohub,2013-03-06 06:01:00,
2013-03-06 01:06:00,33.8,36.9,30.06,ESE,111,0.0,0.0,89,0.00,,,0.00,meteohub,2013-03-06 06:06:00,
2013-03-06 01:11:00,33.6,36.9,30.06,ESE,111,0.0,0.0,89,0.00,,,0.00,meteohub,2013-03-06 06:11:00,
2013-03-06 01:16:00,33.6,36.9,30.06,ESE,111,0.0,0.0,90,0.00,,,0.00,meteohub,2013-03-06 06:16:00,
2013-03-06 01:21:00,33.6,36.7,30.06,ESE,111,0.0,0.0,90,0.00,,,0.00,meteohub,2013-03-06 06:21:00,
2013-03-06 01:26:00,33.6,36.7,30.06,ESE,111,0.0,0.0,90,0.00,,,0.00,meteohub,2013-03-06 06:26:00,
2013-03-06 01:31:00,33.6,36.7,30.06,ESE,111,0.0,0.0,91,0.00,,,0.00,meteohub,2013-03-06 06:31:00,
2013-03-06 01:36:00,33.6,36.9,30.06,ESE,111,0.0,0.0,91,0.00,,,0.00,meteohub,2013-03-06 06:36:00,
2013-03-06 01:41:00,33.6,36.9,30.06,ESE,111,0.0,0.0,91,0.00,,,0.00,meteohub,2013-03-06 06:41:00,
2013-03-06 01:46:00,33.8,36.9,30.06,ESE,111,0.0,0.0,91,0.00,,,0.00,meteohub,2013-03-06 06:46:00,
2013-03-06 01:51:00,34.0,36.9,30.06,ESE,111,0.0,1.0,91,0.00,,,0.00,meteohub,2013-03-06 06:51:00,
2013-03-06 01:56:00,34.0,36.9,30.06,ESE,111,0.0,1.0,92,0.00,,,0.00,meteohub,2013-03-06 06:56:00,
2013-03-06 02:01:00,34.0,36.9,30.06,East,95,0.0,1.0,92,0.00,,,0.00,meteohub,2013-03-06 07:01:00,
2013-03-06 02:06:00,34.2,36.9,30.06,East,91,0.0,1.0,92,0.00,,,0.00,meteohub,2013-03-06 07:06:00,
2013-03-06 02:11:00,34.3,36.9,30.06,East,90,0.0,1.0,92,0.00,,,0.00,meteohub,2013-03-06 07:11:00,
2013-03-06 02:16:00,34.3,36.7,30.06,East,90,0.0,2.0,92,0.00,,,0.00,meteohub,2013-03-06 07:16:00,
2013-03-06 02:21:00,34.3,36.7,30.06,East,90,0.0,2.0,92,0.00,,,0.00,meteohub,2013-03-06 07:21:00,
2013-03-06 02:26:00,34.7,36.5,30.06,SE,140,0.0,2.0,93,0.00,,,0.00,meteohub,2013-03-06 07:26:00,
2013-03-06 02:31:00,34.9,36.5,30.06,ESE,119,0.0,5.0,93,0.00,,,0.00,meteohub,2013-03-06 07:31:00,
2013-03-06 02:36:00,35.2,36.5,30.06,ESE,115,4.0,5.0,93,0.00,,,0.00,meteohub,2013-03-06 07:36:00,
2013-03-06 02:41:00,35.4,36.7,30.06,SE,126,1.0,6.0,93,0.00,,,0.00,meteohub,2013-03-06 07:41:00,
2013-03-06 02:47:00,35.6,36.7,30.06,ESE,118,0.0,6.0,93,0.00,,,0.00,meteohub,2013-03-06 07:47:00,
2013-03-06 02:52:00,35.6,36.9,30.06,SE,124,1.0,6.0,92,0.00,,,0.00,meteohub,2013-03-06 07:52:00,
2013-03-06 02:57:00,35.8,36.9,30.06,East,100,0.0,5.0,92,0.00,,,0.00,meteohub,2013-03-06 07:57:00,
2013-03-06 03:02:00,35.8,36.9,30.06,East,99,0.0,5.0,92,0.00,,,0.00,meteohub,2013-03-06 08:02:00,
2013-03-06 03:07:00,35.8,36.7,30.06,SE,130,0.0,4.0,92,0.00,,,0.00,meteohub,2013-03-06 08:07:00,
2013-03-06 03:12:00,35.8,36.7,30.06,SE,135,0.0,4.0,92,0.00,,,0.00,meteohub,2013-03-06 08:12:00,
2013-03-06 03:17:00,36.0,36.7,30.06,SE,127,0.0,5.0,92,0.00,,,0.00,meteohub,2013-03-06 08:17:00,
2013-03-06 03:22:00,36.0,36.5,30.06,ENE,60,0.0,5.0,92,0.00,,,0.00,meteohub,2013-03-06 08:22:00,
2013-03-06 03:27:00,36.0,36.7,30.06,NE,41,0.0,5.0,91,0.00,,,0.00,meteohub,2013-03-06 08:27:00,
2013-03-06 03:32:00,36.0,36.7,30.06,East,101,0.0,5.0,92,0.00,,,0.00,meteohub,2013-03-06 08:32:00,
2013-03-06 03:37:00,36.0,36.5,30.06,ESE,122,0.0,5.0,92,0.00,,,0.00,meteohub,2013-03-06 08:37:00,
2013-03-06 03:42:00,35.8,36.5,30.06,East,92,1.0,6.0,92,0.00,,,0.00,meteohub,2013-03-06 08:42:00,
2013-03-06 03:47:00,35.8,36.5,30.06,ESE,123,4.0,6.0,92,0.00,,,0.00,meteohub,2013-03-06 08:47:00,
2013-03-06 03:52:00,36.0,36.5,30.06,ESE,121,0.0,6.0,92,0.00,,,0.00,meteohub,2013-03-06 08:52:00,
2013-03-06 03:57:00,35.8,36.5,30.07,ESE,121,1.0,6.0,92,0.00,,,0.00,meteohub,2013-03-06 08:57:00,
2013-03-06 04:02:00,35.8,36.5,30.07,ESE,108,1.0,6.0,92,0.00,,,0.00,meteohub,2013-03-06 09:02:00,
2013-03-06 04:07:00,35.8,36.5,30.07,ESE,107,1.0,5.0,92,0.00,,,0.00,meteohub,2013-03-06 09:07:00,
2013-03-06 04:12:00,35.8,36.5,30.07,SE,132,0.0,5.0,92,0.00,,,0.00,meteohub,2013-03-06 09:12:00,
2013-03-06 04:17:00,35.6,36.5,30.06,SE,142,0.0,5.0,92,0.00,,,0.00,meteohub,2013-03-06 09:17:00,
2013-03-06 04:22:00,35.4,36.7,30.06,SE,143,0.0,5.0,93,0.00,,,0.00,meteohub,2013-03-06 09:22:00,
2013-03-06 04:27:00,35.4,36.7,30.06,SE,144,0.0,2.0,93,0.00,,,0.00,meteohub,2013-03-06 09:27:00,
2013-03-06 04:32:00,35.4,36.7,30.06,ESE,105,0.0,2.0,93,0.00,,,0.00,meteohub,2013-03-06 09:32:00,
2013-03-06 04:37:00,35.4,36.5,30.06,ESE,122,0.0,5.0,93,0.00,,,0.00,meteohub,2013-03-06 09:37:00,
2013-03-06 04:42:00,35.4,36.5,30.06,ESE,114,1.0,5.0,93,0.00,,,0.00,meteohub,2013-03-06 09:42:00,
2013-03-06 04:47:00,35.2,36.5,30.06,SE,130,0.0,5.0,93,0.00,,,0.00,meteohub,2013-03-06 09:47:00,
2013-03-06 04:52:00,35.2,36.5,30.06,SE,130,0.0,4.0,93,0.00,,,0.00,meteohub,2013-03-06 09:52:00,
2013-03-06 04:57:00,35.2,36.5,30.06,ESE,105,0.0,4.0,93,0.00,,,0.00,meteohub,2013-03-06 09:57:00,
2013-03-06 05:02:00,35.1,36.5,30.06,East,96,0.0,4.0,93,0.00,,,0.00,meteohub,2013-03-06 10:02:00,
2013-03-06 05:07:00,35.1,36.5,30.06,East,96,0.0,4.0,93,0.00,,,0.00,meteohub,2013-03-06 10:07:00,
2013-03-06 05:12:00,35.1,36.5,30.06,East,97,2.0,4.0,94,0.00,,,0.00,meteohub,2013-03-06 10:12:00,
2013-03-06 05:17:00,35.1,36.5,30.06,East,97,0.0,2.0,94,0.00,,,0.00,meteohub,2013-03-06 10:17:00,
2013-03-06 05:22:00,34.9,36.5,30.06,East,97,0.0,2.0,94,0.00,,,0.00,meteohub,2013-03-06 10:22:00,
2013-03-06 05:27:00,34.9,36.5,30.06,East,96,0.0,2.0,94,0.00,,,0.00,meteohub,2013-03-06 10:27:00,
2013-03-06 05:32:00,34.9,36.5,30.06,NE,55,1.0,4.0,94,0.00,,,0.00,meteohub,2013-03-06 10:32:00,
2013-03-06 05:37:00,34.9,36.5,30.06,ESE,111,0.0,4.0,94,0.00,,,0.00,meteohub,2013-03-06 10:37:00,
2013-03-06 05:42:00,34.9,36.5,30.06,NE,53,0.0,5.0,94,0.00,,,0.00,meteohub,2013-03-06 10:42:00,
2013-03-06 05:47:00,35.1,36.5,30.06,SE,131,1.0,5.0,94,0.00,,,0.00,meteohub,2013-03-06 10:47:00,
2013-03-06 05:52:00,35.1,36.5,30.06,East,82,2.0,7.0,94,0.00,,,0.00,meteohub,2013-03-06 10:52:00,
2013-03-06 05:57:00,35.1,36.5,30.06,ENE,75,1.0,7.0,94,0.00,,,0.00,meteohub,2013-03-06 10:57:00,
2013-03-06 06:02:00,35.2,36.5,30.06,ESE,112,2.0,7.0,94,0.00,,,0.00,meteohub,2013-03-06 11:02:00,
2013-03-06 06:07:00,35.2,36.5,30.06,SE,140,0.0,7.0,94,0.00,,,0.00,meteohub,2013-03-06 11:07:00,
2013-03-06 06:12:00,35.2,36.5,30.06,NNE,30,2.0,7.0,94,0.00,,,0.00,meteohub,2013-03-06 11:12:00,
2013-03-06 06:17:00,35.4,36.3,30.06,ESE,117,1.0,7.0,95,0.00,,,0.00,meteohub,2013-03-06 11:17:00,
2013-03-06 06:22:00,35.4,36.3,30.06,SE,142,0.0,7.0,95,0.00,,,0.00,meteohub,2013-03-06 11:22:00,
2013-03-06 06:27:00,35.4,36.5,30.06,SE,134,2.0,7.0,95,0.00,,,0.00,meteohub,2013-03-06 11:27:00,
2013-03-06 06:32:00,35.4,36.5,30.07,ESE,105,0.0,7.0,95,0.00,,,0.00,meteohub,2013-03-06 11:32:00,
2013-03-06 06:37:00,35.4,36.5,30.07,ESE,105,0.0,5.0,95,0.00,,,0.00,meteohub,2013-03-06 11:37:00,
2013-03-06 06:42:00,35.4,36.5,30.07,ESE,105,0.0,4.0,95,0.00,,,0.00,meteohub,2013-03-06 11:42:00,
2013-03-06 06:47:00,35.4,36.5,30.07,SE,146,0.0,4.0,95,0.00,,,0.00,meteohub,2013-03-06 11:47:00,
2013-03-06 06:52:00,35.4,36.5,30.07,SE,145,0.0,6.0,95,0.00,,,0.00,meteohub,2013-03-06 11:52:00,
2013-03-06 06:57:00,35.4,36.5,30.07,SE,145,0.0,6.0,95,0.00,,,0.00,meteohub,2013-03-06 11:57:00,
2013-03-06 07:02:00,35.4,36.5,30.08,SE,131,0.0,6.0,95,0.00,,,0.00,meteohub,2013-03-06 12:02:00,
2013-03-06 07:07:00,35.4,36.5,30.08,SE,133,0.0,2.0,95,0.00,,,0.00,meteohub,2013-03-06 12:07:00,
2013-03-06 07:12:00,35.4,36.5,30.09,SE,133,1.0,5.0,95,0.00,,,0.00,meteohub,2013-03-06 12:12:00,
2013-03-06 07:17:00,35.4,36.5,30.08,SE,141,3.0,5.0,95,0.00,,,0.00,meteohub,2013-03-06 12:17:00,
2013-03-06 07:22:00,35.4,36.5,30.09,East,96,1.0,5.0,95,0.00,,,0.00,meteohub,2013-03-06 12:22:00,
2013-03-06 07:27:00,35.4,36.5,30.09,ESE,110,2.0,5.0,95,0.00,,,0.00,meteohub,2013-03-06 12:27:00,
2013-03-06 07:32:00,35.8,36.3,30.09,SE,128,0.0,6.0,95,0.00,,,0.00,meteohub,2013-03-06 12:32:00,
2013-03-06 07:37:00,35.8,37.2,30.09,ESE,113,2.0,6.0,95,0.00,,,0.00,meteohub,2013-03-06 12:37:00,
2013-03-06 07:42:00,35.8,37.6,30.09,SE,144,5.0,5.0,95,0.00,,,0.00,meteohub,2013-03-06 12:42:00,
2013-03-06 07:47:00,36.0,37.6,30.09,SE,137,1.0,5.0,95,0.00,,,0.00,meteohub,2013-03-06 12:47:00,
2013-03-06 07:52:00,36.0,37.6,30.09,SE,140,2.0,6.0,95,0.00,,,0.00,meteohub,2013-03-06 12:52:00,
2013-03-06 07:57:00,36.0,37.6,30.09,ENE,71,2.0,7.0,95,0.00,,,0.00,meteohub,2013-03-06 12:57:00,
2013-03-06 08:02:00,36.0,36.5,30.09,SE,140,5.0,7.0,95,0.00,,,0.00,meteohub,2013-03-06 13:02:00,
2013-03-06 08:07:00,36.1,36.5,30.08,East,92,1.0,9.0,95,0.00,,,0.00,meteohub,2013-03-06 13:07:00,
2013-03-06 08:12:00,36.1,36.5,30.08,SE,131,4.0,9.0,95,0.00,,,0.00,meteohub,2013-03-06 13:12:00,
2013-03-06 08:17:00,36.1,37.6,30.08,North,0,3.0,9.0,95,0.00,,,0.00,meteohub,2013-03-06 13:17:00,
2013-03-06 08:22:00,36.1,37.8,30.08,SSE,161,6.0,8.0,95,0.00,,,0.00,meteohub,2013-03-06 13:22:00,
2013-03-06 08:27:00,36.1,37.8,30.08,SE,142,5.0,12.0,95,0.00,,,0.00,meteohub,2013-03-06 13:27:00,
2013-03-06 08:32:00,36.3,37.8,30.08,SSE,150,5.0,12.0,94,0.00,,,0.00,meteohub,2013-03-06 13:32:00,
2013-03-06 08:37:00,36.3,37.8,30.08,SE,124,6.0,13.0,94,0.00,,,0.00,meteohub,2013-03-06 13:37:00,
2013-03-06 08:42:00,36.3,37.8,30.08,SE,136,3.0,13.0,94,0.00,,,0.00,meteohub,2013-03-06 13:42:00,
2013-03-06 08:47:00,36.3,37.8,30.08,SE,125,0.0,7.0,94,0.00,,,0.00,meteohub,2013-03-06 13:47:00,
2013-03-06 08:52:00,36.5,37.6,30.09,ESE,122,0.0,8.0,94,0.00,,,0.00,meteohub,2013-03-06 13:52:00,
2013-03-06 08:57:00,36.7,37.6,30.08,SE,132,1.0,8.0,94,0.00,,,0.00,meteohub,2013-03-06 13:57:00,
2013-03-06 09:03:00,36.9,37.6,30.09,SSE,163,0.0,7.0,94,0.00,,,0.00,meteohub,2013-03-06 14:03:00,
2013-03-06 09:08:00,36.9,37.6,30.09,SSE,153,2.0,8.0,94,0.00,,,0.00,meteohub,2013-03-06 14:08:00,
2013-03-06 09:13:00,37.0,37.8,30.09,East,90,5.0,8.0,93,0.00,,,0.00,meteohub,2013-03-06 14:13:00,
2013-03-06 09:18:00,37.0,37.8,30.09,SE,135,2.0,9.0,92,0.00,,,0.00,meteohub,2013-03-06 14:18:00,
2013-03-06 09:23:00,37.0,37.8,30.09,ESE,121,5.0,11.0,91,0.00,,,0.00,meteohub,2013-03-06 14:23:00,
2013-03-06 09:28:00,37.0,37.8,30.09,SE,144,5.0,11.0,90,0.00,,,0.00,meteohub,2013-03-06 14:28:00,
2013-03-06 09:33:00,37.2,37.8,30.10,ESE,123,4.0,11.0,90,0.00,,,0.00,meteohub,2013-03-06 14:33:00,
2013-03-06 09:38:00,37.2,37.8,30.10,ESE,119,1.0,11.0,89,0.00,,,0.00,meteohub,2013-03-06 14:38:00,
2013-03-06 09:43:00,37.4,37.8,30.10,SE,144,4.0,11.0,88,0.00,,,0.00,meteohub,2013-03-06 14:43:00,
2013-03-06 09:48:00,37.4,37.8,30.10,SE,134,0.0,9.0,87,0.00,,,0.00,meteohub,2013-03-06 14:48:00,
2013-03-06 09:53:00,37.4,37.8,30.11,SSE,152,7.0,12.0,87,0.00,,,0.00,meteohub,2013-03-06 14:53:00,
2013-03-06 09:58:00,37.2,37.8,30.11,South,186,7.0,12.0,87,0.00,,,0.00,meteohub,2013-03-06 14:58:00,
2013-03-06 10:03:00,37.0,37.8,30.11,SE,132,3.0,12.0,87,0.00,,,0.00,meteohub,2013-03-06 15:03:00,
2013-03-06 10:08:00,37.0,37.8,30.10,East,87,2.0,11.0,86,0.00,,,0.00,meteohub,2013-03-06 15:08:00,
2013-03-06 10:13:00,37.2,37.8,30.10,SSE,155,4.0,11.0,86,0.00,,,0.00,meteohub,2013-03-06 15:13:00,
2013-03-06 10:18:00,37.2,37.8,30.09,ESE,103,0.0,12.0,86,0.00,,,0.00,meteohub,2013-03-06 15:18:00,
2013-03-06 10:23:00,37.2,37.8,30.09,ESE,103,5.0,12.0,85,0.00,,,0.00,meteohub,2013-03-06 15:23:00,
2013-03-06 10:28:00,37.2,37.8,30.09,SSE,156,6.0,9.0,86,0.00,,,0.00,meteohub,2013-03-06 15:28:00,
2013-03-06 10:33:00,37.0,37.8,30.09,South,171,4.0,14.0,87,0.00,,,0.00,meteohub,2013-03-06 15:33:00,
2013-03-06 10:38:00,36.9,37.8,30.09,ESE,103,2.0,14.0,88,0.00,,,0.00,meteohub,2013-03-06 15:38:00,
2013-03-06 10:43:00,36.9,37.9,30.09,SE,132,1.0,14.0,89,0.00,,,0.00,meteohub,2013-03-06 15:43:00,
2013-03-06 10:48:00,37.0,37.9,30.09,NW,311,1.0,11.0,89,0.00,,,0.00,meteohub,2013-03-06 15:48:00,
2013-03-06 10:53:00,37.0,37.9,30.09,SE,142,9.0,11.0,89,0.00,,,0.00,meteohub,2013-03-06 15:53:00,
2013-03-06 10:58:00,37.0,37.9,30.09,SSE,164,4.0,7.0,89,0.00,,,0.00,meteohub,2013-03-06 15:58:00,
2013-03-06 11:03:00,36.9,37.9,30.09,SSE,147,4.0,9.0,90,0.00,,,0.00,meteohub,2013-03-06 16:03:00,
2013-03-06 11:08:00,36.9,37.9,30.09,East,96,0.0,11.0,90,0.00,,,0.00,meteohub,2013-03-06 16:08:00,
2013-03-06 11:13:00,37.0,37.9,30.09,SE,136,7.0,11.0,90,0.00,,,0.00,meteohub,2013-03-06 16:13:00,
2013-03-06 11:18:00,37.2,37.9,30.09,SE,140,4.0,11.0,90,0.00,,,0.00,meteohub,2013-03-06 16:18:00,
2013-03-06 11:23:00,37.2,37.9,30.08,SE,137,1.0,10.0,89,0.00,,,0.00,meteohub,2013-03-06 16:23:00,
2013-03-06 11:28:00,37.4,38.1,30.08,SE,130,1.0,10.0,88,0.00,,,0.00,meteohub,2013-03-06 16:28:00,
2013-03-06 11:33:00,37.6,38.1,30.09,East,97,5.0,10.0,88,0.00,,,0.00,meteohub,2013-03-06 16:33:00,
2013-03-06 11:38:00,37.8,38.1,30.08,SE,126,7.0,10.0,87,0.00,,,0.00,meteohub,2013-03-06 16:38:00,
2013-03-06 11:43:00,37.9,38.1,30.08,SE,131,0.0,9.0,85,0.00,,,0.00,meteohub,2013-03-06 16:43:00,
2013-03-06 11:49:00,37.9,38.1,30.08,SSE,156,5.0,9.0,84,0.00,,,0.00,meteohub,2013-03-06 16:49:00,
2013-03-06 11:54:00,37.9,38.1,30.08,SE,146,7.0,9.0,84,0.00,,,0.00,meteohub,2013-03-06 16:54:00,
2013-03-06 11:59:00,37.9,37.9,30.08,SE,141,4.0,9.0,82,0.00,,,0.00,meteohub,2013-03-06 16:59:00,
2013-03-06 12:04:00,38.1,37.9,30.08,SE,134,7.0,9.0,83,0.00,,,0.00,meteohub,2013-03-06 17:04:00,
2013-03-06 12:09:00,38.1,37.9,30.08,South,173,3.0,10.0,81,0.00,,,0.00,meteohub,2013-03-06 17:09:00,
2013-03-06 12:14:00,38.5,37.9,30.08,SE,142,5.0,10.0,79,0.00,,,0.00,meteohub,2013-03-06 17:14:00,
2013-03-06 12:19:00,38.5,37.9,30.08,ENE,75,0.0,9.0,79,0.00,,,0.00,meteohub,2013-03-06 17:19:00,
2013-03-06 12:24:00,38.7,37.9,30.08,SE,130,5.0,10.0,80,0.00,,,0.00,meteohub,2013-03-06 17:24:00,
2013-03-06 12:29:00,38.7,38.1,30.08,East,86,1.0,10.0,80,0.00,,,0.00,meteohub,2013-03-06 17:29:00,
2013-03-06 12:34:00,38.5,38.1,30.08,SE,138,1.0,11.0,83,0.00,,,0.00,meteohub,2013-03-06 17:34:00,
2013-03-06 12:39:00,37.9,38.1,30.08,SSE,163,1.0,11.0,84,0.00,,,0.00,meteohub,2013-03-06 17:39:00,
2013-03-06 12:44:00,37.9,37.9,30.08,ESE,123,1.0,11.0,85,0.00,,,0.00,meteohub,2013-03-06 17:44:00,
2013-03-06 12:49:00,37.8,37.9,30.08,East,101,1.0,7.0,85,0.00,,,0.00,meteohub,2013-03-06 17:49:00,
2013-03-06 12:54:00,37.6,37.9,30.07,NE,40,0.0,8.0,85,0.00,,,0.00,meteohub,2013-03-06 17:54:00,
2013-03-06 12:59:00,37.4,37.9,30.07,SE,138,1.0,8.0,86,0.00,,,0.00,meteohub,2013-03-06 17:59:00,
2013-03-06 13:04:00,37.2,37.8,30.07,SSE,152,4.0,9.0,86,0.00,,,0.00,meteohub,2013-03-06 18:04:00,
2013-03-06 13:09:00,37.2,37.8,30.07,East,92,2.0,9.0,86,0.00,,,0.00,meteohub,2013-03-06 18:09:00,
2013-03-06 13:14:00,37.2,37.8,30.07,SSE,155,0.0,9.0,86,0.00,,,0.00,meteohub,2013-03-06 18:14:00,
2013-03-06 13:19:00,37.2,37.8,30.07,SE,134,5.0,8.0,86,0.00,,,0.00,meteohub,2013-03-06 18:19:00,
2013-03-06 13:24:00,37.0,37.8,30.07,SSE,163,7.0,8.0,86,0.00,,,0.00,meteohub,2013-03-06 18:24:00,
2013-03-06 13:29:00,36.7,37.8,30.07,SSE,150,5.0,8.0,87,0.00,,,0.00,meteohub,2013-03-06 18:29:00,
2013-03-06 13:34:00,36.7,37.9,30.07,SE,125,4.0,11.0,88,0.00,,,0.00,meteohub,2013-03-06 18:34:00,
2013-03-06 13:39:00,36.9,37.9,30.07,SE,139,6.0,11.0,89,0.00,,,0.00,meteohub,2013-03-06 18:39:00,
2013-03-06 13:44:00,37.0,37.9,30.07,East,100,0.0,11.0,88,0.00,,,0.00,meteohub,2013-03-06 18:44:00,
2013-03-06 13:49:00,37.0,37.9,30.07,SSE,153,4.0,11.0,88,0.00,,,0.00,meteohub,2013-03-06 18:49:00,
2013-03-06 13:54:00,37.4,37.9,30.07,East,93,3.0,11.0,87,0.00,,,0.00,meteohub,2013-03-06 18:54:00,
2013-03-06 13:59:00,37.6,37.9,30.06,WNW,303,4.0,11.0,87,0.00,,,0.00,meteohub,2013-03-06 18:59:00,
2013-03-06 14:04:00,37.8,37.9,30.06,SE,132,9.0,11.0,86,0.00,,,0.00,meteohub,2013-03-06 19:04:00,
2013-03-06 14:09:00,37.8,37.8,30.06,East,98,0.0,9.0,86,0.00,,,0.00,meteohub,2013-03-06 19:09:00,
2013-03-06 14:14:00,37.8,37.8,30.07,SE,146,7.0,9.0,87,0.00,,,0.00,meteohub,2013-03-06 19:14:00,
2013-03-06 14:19:00,36.9,37.8,30.08,ESE,110,1.0,9.0,88,0.00,,,0.00,meteohub,2013-03-06 19:19:00,
2013-03-06 14:24:00,36.1,37.8,30.07,SSE,151,4.0,10.0,89,0.00,,,0.00,meteohub,2013-03-06 19:24:00,
2013-03-06 14:29:00,36.1,37.8,30.07,ESE,112,2.0,10.0,90,0.00,,,0.00,meteohub,2013-03-06 19:29:00,
2013-03-06 14:34:00,36.3,37.8,30.07,ESE,115,1.0,10.0,90,0.00,,,0.00,meteohub,2013-03-06 19:34:00,
2013-03-06 14:40:00,36.7,37.8,30.07,SE,132,2.0,7.0,91,0.00,,,0.00,meteohub,2013-03-06 19:40:00,
2013-03-06 14:45:00,36.7,37.8,30.07,East,99,3.0,7.0,91,0.00,,,0.00,meteohub,2013-03-06 19:45:00,
2013-03-06 14:50:00,36.5,37.8,30.07,SSE,152,5.0,8.0,91,0.00,,,0.00,meteohub,2013-03-06 19:50:00,
2013-03-06 14:55:00,36.7,37.8,30.06,NE,54,1.0,8.0,91,0.00,,,0.00,meteohub,2013-03-06 19:55:00,
2013-03-06 15:00:00,36.9,37.8,30.06,SSE,149,7.0,7.0,91,0.00,,,0.00,meteohub,2013-03-06 20:00:00,
2013-03-06 15:05:00,36.9,37.8,30.06,NE,49,10.0,10.0,89,0.00,,,0.00,meteohub,2013-03-06 20:05:00,
2013-03-06 15:10:00,36.0,37.8,30.08,SE,137,2.0,13.0,89,0.00,,,0.00,meteohub,2013-03-06 20:10:00,
2013-03-06 15:15:00,35.2,37.8,30.07,ESE,114,6.0,13.0,90,0.00,,,0.00,meteohub,2013-03-06 20:15:00,
2013-03-06 15:20:00,35.1,37.6,30.06,SE,142,4.0,13.0,91,0.00,,,0.00,meteohub,2013-03-06 20:20:00,
2013-03-06 15:25:00,35.2,37.6,30.07,ESE,105,2.0,11.0,92,0.00,,,0.00,meteohub,2013-03-06 20:25:00,
2013-03-06 15:30:00,35.4,37.6,30.06,SE,138,1.0,11.0,92,0.00,,,0.00,meteohub,2013-03-06 20:30:00,
2013-03-06 15:35:00,35.8,37.8,30.06,ESE,117,3.0,11.0,92,0.00,,,0.00,meteohub,2013-03-06 20:35:00,
2013-03-06 15:40:00,35.6,37.8,30.07,SE,135,0.0,12.0,91,0.00,,,0.00,meteohub,2013-03-06 20:40:00,
2013-03-06 15:45:00,35.4,37.8,30.07,ESE,105,9.0,12.0,91,0.00,,,0.00,meteohub,2013-03-06 20:45:00,
2013-03-06 15:50:00,35.4,37.8,30.07,ESE,116,4.0,12.0,91,0.00,,,0.00,meteohub,2013-03-06 20:50:00,
2013-03-06 15:55:00,35.4,37.8,30.07,WSW,248,4.0,11.0,91,0.00,,,0.00,meteohub,2013-03-06 20:55:00,
2013-03-06 16:00:00,35.2,37.9,30.07,SE,141,6.0,11.0,90,0.00,,,0.00,meteohub,2013-03-06 21:00:00,
2013-03-06 16:05:00,35.2,37.9,30.08,SSE,166,2.0,11.0,90,0.00,,,0.00,meteohub,2013-03-06 21:05:00,
2013-03-06 16:10:00,35.2,37.9,30.08,SE,125,4.0,11.0,90,0.00,,,0.00,meteohub,2013-03-06 21:10:00,
2013-03-06 16:15:00,35.2,37.9,30.08,SE,128,2.0,10.0,90,0.00,,,0.00,meteohub,2013-03-06 21:15:00,
2013-03-06 16:20:00,35.2,37.9,30.08,SE,130,11.0,13.0,90,0.00,,,0.00,meteohub,2013-03-06 21:20:00,
2013-03-06 16:25:00,35.2,37.9,30.08,SSE,164,0.0,13.0,89,0.00,,,0.00,meteohub,2013-03-06 21:25:00,
2013-03-06 16:30:00,35.2,37.9,30.08,ESE,122,4.0,13.0,89,0.00,,,0.00,meteohub,2013-03-06 21:30:00,
2013-03-06 16:35:00,35.2,38.1,30.07,East,101,1.0,11.0,88,0.00,,,0.00,meteohub,2013-03-06 21:35:00,
2013-03-06 16:40:00,35.2,38.1,30.07,SE,140,4.0,9.0,88,0.00,,,0.00,meteohub,2013-03-06 21:40:00,
2013-03-06 16:45:00,35.2,38.3,30.07,SSW,205,1.0,9.0,87,0.00,,,0.00,meteohub,2013-03-06 21:45:00,
2013-03-06 16:50:00,35.4,38.3,30.08,SSE,153,1.0,9.0,87,0.00,,,0.00,meteohub,2013-03-06 21:50:00,
2013-03-06 16:55:00,35.6,38.3,30.09,SE,138,10.0,10.0,86,0.00,,,0.00,meteohub,2013-03-06 21:55:00,
2013-03-06 17:00:00,35.6,38.1,30.09,SE,133,1.0,10.0,86,0.00,,,0.00,meteohub,2013-03-06 22:00:00,
2013-03-06 17:05:00,35.4,38.3,30.09,SE,129,1.0,10.0,86,0.00,,,0.00,meteohub,2013-03-06 22:05:00,
2013-03-06 17:10:00,35.4,38.5,30.09,SSE,159,12.0,13.0,87,0.00,,,0.00,meteohub,2013-03-06 22:10:00,
2013-03-06 17:15:00,35.2,38.8,30.09,SE,136,1.0,14.0,87,0.00,,,0.00,meteohub,2013-03-06 22:15:00,
2013-03-06 17:20:00,35.2,39.2,30.10,SE,138,4.0,14.0,88,0.00,,,0.00,meteohub,2013-03-06 22:20:00,
2013-03-06 17:25:00,34.9,39.6,30.11,East,80,2.0,14.0,89,0.00,,,0.00,meteohub,2013-03-06 22:25:00,
2013-03-06 17:30:00,34.3,39.7,30.10,SSE,150,7.0,10.0,90,0.00,,,0.00,meteohub,2013-03-06 22:30:00,
2013-03-06 17:36:00,34.3,39.9,30.10,South,177,1.0,10.0,91,0.00,,,0.00,meteohub,2013-03-06 22:36:00,
2013-03-06 17:41:00,34.2,39.9,30.10,SE,145,5.0,10.0,91,0.00,,,0.00,meteohub,2013-03-06 22:41:00,
2013-03-06 17:46:00,34.2,39.9,30.10,SSE,155,4.0,10.0,92,0.00,,,0.00,meteohub,2013-03-06 22:46:00,
2013-03-06 17:51:00,34.2,39.9,30.10,SE,134,5.0,8.0,92,0.00,,,0.00,meteohub,2013-03-06 22:51:00,
2013-03-06 17:56:00,34.2,39.9,30.09,ENE,58,2.0,8.0,92,0.00,,,0.00,meteohub,2013-03-06 22:56:00,
2013-03-06 18:01:00,34.2,40.1,30.09,East,90,0.0,8.0,92,0.00,,,0.00,meteohub,2013-03-06 23:01:00,
2013-03-06 18:06:00,34.0,40.3,30.09,SE,134,5.0,8.0,92,0.00,,,0.00,meteohub,2013-03-06 23:06:00,
2013-03-06 18:11:00,34.0,40.3,30.09,SE,140,2.0,8.0,92,0.00,,,0.00,meteohub,2013-03-06 23:11:00,
2013-03-06 18:16:00,34.0,40.3,30.08,SSE,150,1.0,8.0,93,0.00,,,0.00,meteohub,2013-03-06 23:16:00,
2013-03-06 18:21:00,34.0,40.3,30.08,South,173,0.0,9.0,92,0.00,,,0.00,meteohub,2013-03-06 23:21:00,
2013-03-06 18:26:00,34.2,41.4,30.08,SE,126,3.0,9.0,92,0.00,,,0.00,meteohub,2013-03-06 23:26:00,
2013-03-06 18:31:00,34.3,41.5,30.09,SSE,150,4.0,13.0,92,0.00,,,0.00,meteohub,2013-03-06 23:31:00,
2013-03-06 18:36:00,34.3,40.8,30.09,SE,130,2.0,13.0,92,0.00,,,0.00,meteohub,2013-03-06 23:36:00,
2013-03-06 18:41:00,34.3,41.0,30.09,SE,132,1.0,13.0,92,0.00,,,0.00,meteohub,2013-03-06 23:41:00,
2013-03-06 18:46:00,34.3,41.0,30.09,SE,127,0.0,8.0,92,0.00,,,0.00,meteohub,2013-03-06 23:46:00,
2013-03-06 18:51:00,34.3,41.0,30.09,SSE,160,2.0,8.0,92,0.00,,,0.00,meteohub,2013-03-06 23:51:00,
2013-03-06 18:56:00,34.2,41.0,30.09,ENE,67,2.0,8.0,92,0.00,,,0.00,meteohub,2013-03-06 23:56:00,
2013-03-06 19:01:00,34.3,40.8,30.09,SE,140,1.0,8.0,92,0.00,,,0.00,meteohub,2013-03-07 00:01:00,
2013-03-06 19:06:00,34.3,40.8,30.10,ENE,74,1.0,9.0,92,0.00,,,0.00,meteohub,2013-03-07 00:06:00,
2013-03-06 19:11:00,34.3,41.0,30.10,ESE,111,1.0,9.0,92,0.00,,,0.00,meteohub,2013-03-07 00:11:00,
2013-03-06 19:16:00,34.3,41.0,30.10,SE,141,8.0,9.0,92,0.00,,,0.00,meteohub,2013-03-07 00:16:00,
2013-03-06 19:21:00,34.3,41.0,30.10,East,96,1.0,9.0,92,0.00,,,0.00,meteohub,2013-03-07 00:21:00,
2013-03-06 19:26:00,34.2,41.2,30.11,SE,129,0.0,8.0,92,0.00,,,0.00,meteohub,2013-03-07 00:26:00,
2013-03-06 19:31:00,34.2,41.0,30.10,ESE,107,1.0,9.0,92,0.00,,,0.00,meteohub,2013-03-07 00:31:00,
2013-03-06 19:36:00,34.2,41.0,30.11,NE,56,4.0,9.0,92,0.00,,,0.00,meteohub,2013-03-07 00:36:00,
2013-03-06 19:41:00,34.0,41.0,30.10,ESE,115,2.0,9.0,93,0.00,,,0.00,meteohub,2013-03-07 00:41:00,
2013-03-06 19:46:00,34.0,41.0,30.10,SE,140,2.0,8.0,93,0.00,,,0.00,meteohub,2013-03-07 00:46:00,
2013-03-06 19:51:00,34.0,41.0,30.10,East,100,1.0,8.0,93,0.00,,,0.00,meteohub,2013-03-07 00:51:00,
2013-03-06 19:56:00,33.8,41.0,30.10,ESE,111,5.0,7.0,93,0.00,,,0.00,meteohub,2013-03-07 00:56:00,
2013-03-06 20:01:00,33.6,41.0,30.10,SE,130,0.0,7.0,93,0.00,,,0.00,meteohub,2013-03-07 01:01:00,
2013-03-06 20:06:00,33.6,41.2,30.10,SE,140,0.0,7.0,93,0.00,,,0.00,meteohub,2013-03-07 01:06:00,
2013-03-06 20:11:00,33.6,41.2,30.10,SE,125,3.0,6.0,94,0.00,,,0.00,meteohub,2013-03-07 01:11:00,
2013-03-06 20:16:00,33.6,41.2,30.10,East,96,4.0,6.0,94,0.00,,,0.00,meteohub,2013-03-07 01:16:00,
2013-03-06 20:21:00,33.6,41.0,30.09,ESE,114,1.0,6.0,94,0.00,,,0.00,meteohub,2013-03-07 01:21:00,
2013-03-06 20:26:00,33.6,41.0,30.09,SE,128,2.0,9.0,94,0.00,,,0.00,meteohub,2013-03-07 01:26:00,
2013-03-06 20:31:00,33.4,41.0,30.09,SE,133,2.0,9.0,94,0.00,,,0.00,meteohub,2013-03-07 01:31:00,
2013-03-06 20:36:00,33.4,41.9,30.09,ESE,109,1.0,8.0,94,0.00,,,0.00,meteohub,2013-03-07 01:36:00,
2013-03-06 20:41:00,33.4,41.0,30.09,East,90,0.0,8.0,94,0.00,,,0.00,meteohub,2013-03-07 01:41:00,
2013-03-06 20:46:00,33.4,41.2,30.09,East,92,5.0,5.0,94,0.00,,,0.00,meteohub,2013-03-07 01:46:00,
2013-03-06 20:51:00,33.4,41.4,30.09,NNW,342,6.0,6.0,94,0.00,,,0.00,meteohub,2013-03-07 01:51:00,
2013-03-06 20:56:00,33.4,41.2,30.09,SE,137,0.0,7.0,94,0.00,,,0.00,meteohub,2013-03-07 01:56:00,
2013-03-06 21:01:00,33.4,41.2,30.09,East,90,1.0,9.0,94,0.00,,,0.00,meteohub,2013-03-07 02:01:00,
2013-03-06 21:06:00,33.3,41.2,30.09,ESE,119,1.0,9.0,94,0.00,,,0.00,meteohub,2013-03-07 02:06:00,
2013-03-06 21:11:00,33.3,41.0,30.09,ESE,112,2.0,9.0,94,0.00,,,0.00,meteohub,2013-03-07 02:11:00,
2013-03-06 21:16:00,33.3,41.0,30.09,SE,141,4.0,6.0,94,0.00,,,0.00,meteohub,2013-03-07 02:16:00,
2013-03-06 21:21:00,33.4,41.0,30.08,SE,126,6.0,9.0,94,0.00,,,0.00,meteohub,2013-03-07 02:21:00,
2013-03-06 21:26:00,33.4,41.0,30.08,NNE,29,5.0,9.0,94,0.00,,,0.00,meteohub,2013-03-07 02:26:00,
2013-03-06 21:31:00,33.4,41.0,30.08,NNW,342,1.0,9.0,94,0.00,,,0.00,meteohub,2013-03-07 02:31:00,
2013-03-06 21:36:00,33.4,40.8,30.08,ESE,123,3.0,7.0,94,0.00,,,0.00,meteohub,2013-03-07 02:36:00,
2013-03-06 21:41:00,33.4,40.8,30.08,SSE,156,2.0,8.0,94,0.00,,,0.00,meteohub,2013-03-07 02:41:00,
2013-03-06 21:46:00,33.3,40.6,30.09,SE,126,4.0,8.0,94,0.00,,,0.00,meteohub,2013-03-07 02:46:00,
2013-03-06 21:52:00,33.3,40.6,30.08,East,93,0.0,8.0,94,0.00,,,0.00,meteohub,2013-03-07 02:52:00,
2013-03-06 21:57:00,33.3,40.5,30.08,ESE,111,0.0,8.0,94,0.00,,,0.00,meteohub,2013-03-07 02:57:00,
2013-03-06 22:02:00,33.3,40.5,30.08,ESE,106,1.0,8.0,94,0.00,,,0.00,meteohub,2013-03-07 03:02:00,
2013-03-06 22:07:00,33.3,40.3,30.08,SE,130,2.0,6.0,94,0.00,,,0.00,meteohub,2013-03-07 03:07:00,
2013-03-06 22:12:00,33.3,40.1,30.09,SSW,199,1.0,6.0,94,0.00,,,0.00,meteohub,2013-03-07 03:12:00,
2013-03-06 22:17:00,33.3,40.1,30.09,NE,44,0.0,9.0,94,0.00,,,0.00,meteohub,2013-03-07 03:17:00,
2013-03-06 22:22:00,33.3,39.9,30.08,ESE,119,2.0,9.0,94,0.00,,,0.00,meteohub,2013-03-07 03:22:00,
2013-03-06 22:27:00,33.1,39.9,30.08,SE,146,4.0,9.0,94,0.00,,,0.00,meteohub,2013-03-07 03:27:00,
2013-03-06 22:32:00,33.1,39.9,30.09,NNE,28,0.0,7.0,94,0.00,,,0.00,meteohub,2013-03-07 03:32:00,
2013-03-06 22:37:00,33.1,39.9,30.08,SE,126,1.0,7.0,94,0.00,,,0.00,meteohub,2013-03-07 03:37:00,
2013-03-06 22:42:00,33.1,39.7,30.08,ENE,72,0.0,7.0,94,0.00,,,0.00,meteohub,2013-03-07 03:42:00,
2013-03-06 22:47:00,33.1,39.7,30.08,ESE,122,1.0,7.0,94,0.00,,,0.00,meteohub,2013-03-07 03:47:00,
2013-03-06 22:52:00,33.1,39.6,30.08,SSE,154,0.0,7.0,94,0.00,,,0.00,meteohub,2013-03-07 03:52:00,
2013-03-06 22:57:00,33.1,39.6,30.08,SSE,152,5.0,7.0,94,0.00,,,0.00,meteohub,2013-03-07 03:57:00,
2013-03-06 23:02:00,32.9,39.6,30.08,SE,128,1.0,6.0,94,0.00,,,0.00,meteohub,2013-03-07 04:02:00,
2013-03-06 23:07:00,32.9,39.6,30.08,SE,138,0.0,6.0,94,0.00,,,0.00,meteohub,2013-03-07 04:07:00,
2013-03-06 23:12:00,32.7,39.6,30.08,SE,142,4.0,6.0,94,0.00,,,0.00,meteohub,2013-03-07 04:12:00,
2013-03-06 23:17:00,32.7,39.4,30.08,SE,146,0.0,9.0,95,0.00,,,0.00,meteohub,2013-03-07 04:17:00,
2013-03-06 23:22:00,32.7,38.5,30.08,SE,135,4.0,9.0,95,0.00,,,0.00,meteohub,2013-03-07 04:22:00,
2013-03-06 23:27:00,32.7,38.3,30.08,SE,129,1.0,9.0,95,0.00,,,0.00,meteohub,2013-03-07 04:27:00,
2013-03-06 23:32:00,32.7,38.3,30.08,SE,141,2.0,6.0,95,0.00,,,0.00,meteohub,2013-03-07 04:32:00,
2013-03-06 23:37:00,32.7,38.1,30.08,ESE,114,1.0,6.0,95,0.00,,,0.00,meteohub,2013-03-07 04:37:00,
2013-03-06 23:42:00,32.7,38.1,30.08,ENE,72,6.0,6.0,95,0.00,,,0.00,meteohub,2013-03-07 04:42:00,
2013-03-06 23:47:00,32.9,37.9,30.08,East,90,0.0,9.0,95,0.00,,,0.00,meteohub,2013-03-07 04:47:00,
2013-03-06 23:52:00,32.7,37.9,30.08,SE,143,0.0,9.0,95,0.00,,,0.00,meteohub,2013-03-07 04:52:00,
2013-03-06 23:57:00,32.7,37.8,30.08,SE,135,1.0,9.0,95,0.00,,,0.00,meteohub,2013-03-07 04:57:00,